When you browse on this site, cookies collect data to enhance your experience and personalize the content and advertising you see.
Visit our Privacy Policy to learn more. By continuing to use the site, you agree to this use of cookies and data.
  • Em Portugal
  • Lista de países
  • Para 7 dias
  • Temperatura da água
  • Mapas de satélite
  • Mapa do tempo
  • Widgets de tempo
  • user-avatar
    Iniciar Sessão

    Previsão horária em Hasselt

    Hoje, 27 Maio, Segunda-feira

    Tempo Temperatura Precipitação Vento Pressão Humidade
    00:00 +14°C° 0 mm 3 m/s 754 mmHg 92%
    01:00 +14°C° 0.4 mm 3 m/s 754 mmHg 93%
    02:00 +14°C° 0.4 mm 3 m/s 754 mmHg 95%
    03:00 +14°C° 0.4 mm 3 m/s 753 mmHg 96%
    04:00 +14°C° 0.1 mm 3 m/s 754 mmHg 95%
    05:00 +15°C° 0.1 mm 2 m/s 754 mmHg 94%
    06:00 +15°C° 0.1 mm 2 m/s 754 mmHg 94%
    07:00 +16°C° 0 mm 2 m/s 754 mmHg 85%
    08:00 +17°C° 0 mm 2 m/s 754 mmHg 76%
    09:00 +18°C° 0 mm 3 m/s 754 mmHg 68%
    10:00 +19°C° 0 mm 3 m/s 754 mmHg 63%
    11:00 +19°C° 0 mm 4 m/s 754 mmHg 58%
    12:00 +20°C° 0 mm 4 m/s 753 mmHg 53%
    13:00 +20°C° 0 mm 4 m/s 753 mmHg 53%
    14:00 +20°C° 0 mm 4 m/s 753 mmHg 54%
    15:00 +20°C° 0 mm 4 m/s 753 mmHg 54%
    16:00 +19°C° 0 mm 4 m/s 753 mmHg 59%
    17:00 +18°C° 0 mm 3 m/s 753 mmHg 64%
    18:00 +17°C° 0 mm 2 m/s 752 mmHg 69%
    19:00 +16°C° 0 mm 2 m/s 753 mmHg 72%
    20:00 +14°C° 0 mm 2 m/s 753 mmHg 76%
    21:00 +13°C° 0 mm 2 m/s 753 mmHg 80%
    22:00 +12°C° 0 mm 2 m/s 752 mmHg 84%
    23:00 +12°C° 0 mm 2 m/s 752 mmHg 88%

    Amanhã, 28 Maio, Terça-feira

    Tempo Temperatura Precipitação Vento Pressão Humidade
    00:00 +10°C° 0 mm 3 m/s 752 mmHg 92%
    01:00 +10°C° 0.1 mm 3 m/s 752 mmHg 93%
    02:00 +10°C° 0.1 mm 3 m/s 752 mmHg 94%
    03:00 +9°C° 0.1 mm 3 m/s 751 mmHg 95%
    04:00 +10°C° 0.8 mm 3 m/s 751 mmHg 94%
    05:00 +10°C° 0.8 mm 3 m/s 751 mmHg 94%
    06:00 +11°C° 0.8 mm 3 m/s 751 mmHg 93%
    07:00 +12°C° 1.1 mm 4 m/s 752 mmHg 89%
    08:00 +13°C° 1.1 mm 4 m/s 752 mmHg 84%
    09:00 +14°C° 1.1 mm 4 m/s 752 mmHg 80%
    10:00 +14°C° 0.7 mm 4 m/s 752 mmHg 77%
    11:00 +16°C° 0.7 mm 3 m/s 752 mmHg 75%
    12:00 +16°C° 0.7 mm 3 m/s 753 mmHg 72%
    13:00 +16°C° 1.1 mm 3 m/s 753 mmHg 75%
    14:00 +16°C° 1.1 mm 3 m/s 753 mmHg 77%
    15:00 +15°C° 1.1 mm 4 m/s 754 mmHg 80%
    16:00 +15°C° 0.6 mm 4 m/s 754 mmHg 81%
    17:00 +14°C° 0.6 mm 4 m/s 755 mmHg 83%
    18:00 +13°C° 0.6 mm 3 m/s 756 mmHg 85%
    19:00 +12°C° 0.1 mm 3 m/s 756 mmHg 87%
    20:00 +11°C° 0.1 mm 3 m/s 757 mmHg 88%
    21:00 +9°C° 0.1 mm 3 m/s 758 mmHg 90%
    22:00 +9°C° 0 mm 3 m/s 758 mmHg 90%
    23:00 +8°C° 0 mm 2 m/s 759 mmHg 90%

    Depois de amanhã, 29 Maio, Quarta-feira

    Tempo Temperatura Precipitação Vento Pressão Humidade
    00:00 +7°C° 0 mm 2 m/s 759 mmHg 90%
    01:00 +6°C° 0 mm 2 m/s 759 mmHg 90%
    02:00 +6°C° 0 mm 2 m/s 760 mmHg 91%
    03:00 +7°C° 0 mm 1 m/s 760 mmHg 91%
    04:00 +8°C° 0 mm 1 m/s 760 mmHg 89%
    05:00 +8°C° 0 mm 2 m/s 760 mmHg 86%
    06:00 +9°C° 0 mm 2 m/s 761 mmHg 84%
    07:00 +12°C° 0 mm 2 m/s 761 mmHg 74%
    08:00 +14°C° 0 mm 2 m/s 761 mmHg 65%
    09:00 +16°C° 0 mm 2 m/s 761 mmHg 55%
    10:00 +17°C° 0 mm 2 m/s 760 mmHg 51%
    11:00 +18°C° 0 mm 2 m/s 760 mmHg 47%
    12:00 +19°C° 0 mm 2 m/s 760 mmHg 44%
    13:00 +19°C° 0.1 mm 2 m/s 760 mmHg 47%
    14:00 +19°C° 0.1 mm 2 m/s 760 mmHg 51%
    15:00 +19°C° 0.1 mm 3 m/s 759 mmHg 54%
    16:00 +18°C° 0.2 mm 3 m/s 759 mmHg 63%
    17:00 +17°C° 0.2 mm 2 m/s 759 mmHg 72%
    18:00 +16°C° 0.2 mm 2 m/s 759 mmHg 82%
    19:00 +15°C° 0 mm 2 m/s 759 mmHg 85%
    20:00 +14°C° 0 mm 2 m/s 760 mmHg 88%
    21:00 +12°C° 0 mm 3 m/s 760 mmHg 91%
    22:00 +12°C° 0 mm 3 m/s 760 mmHg 91%
    23:00 +11°C° 0 mm 3 m/s 760 mmHg 91%

    30 Maio, Quinta-feira

    Tempo Temperatura Precipitação Vento Pressão Humidade
    00:00 +11°C° 0 mm 4 m/s 759 mmHg 91%
    01:00 +11°C° 0 mm 4 m/s 759 mmHg 92%
    02:00 +12°C° 0 mm 4 m/s 759 mmHg 93%
    03:00 +12°C° 0 mm 4 m/s 759 mmHg 94%
    04:00 +12°C° 0.1 mm 3 m/s 759 mmHg 94%
    05:00 +13°C° 0.1 mm 3 m/s 759 mmHg 94%
    06:00 +13°C° 0.1 mm 3 m/s 759 mmHg 94%
    07:00 +14°C° 0.1 mm 3 m/s 760 mmHg 90%
    08:00 +15°C° 0.1 mm 4 m/s 760 mmHg 87%
    09:00 +17°C° 0.1 mm 4 m/s 760 mmHg 83%
    10:00 +18°C° 0.1 mm 4 m/s 761 mmHg 81%
    11:00 +17°C° 0.1 mm 5 m/s 761 mmHg 79%
    12:00 +19°C° 0.1 mm 5 m/s 761 mmHg 77%
    13:00 +19°C° 0.1 mm 5 m/s 761 mmHg 78%
    14:00 +19°C° 0.1 mm 5 m/s 761 mmHg 79%
    15:00 +19°C° 0.1 mm 5 m/s 761 mmHg 80%
    16:00 +18°C° 0.1 mm 4 m/s 761 mmHg 83%
    17:00 +18°C° 0.1 mm 4 m/s 762 mmHg 86%
    18:00 +18°C° 0.1 mm 3 m/s 762 mmHg 89%
    19:00 +17°C° 0 mm 4 m/s 762 mmHg 89%
    20:00 +17°C° 0 mm 4 m/s 762 mmHg 89%
    21:00 +15°C° 0 mm 5 m/s 762 mmHg 88%
    22:00 +15°C° 0 mm 5 m/s 762 mmHg 89%
    23:00 +15°C° 0 mm 5 m/s 763 mmHg 89%

    31 Maio, Sexta-feira

    Tempo Temperatura Precipitação Vento Pressão Humidade
    00:00 +14°C° 0 mm 5 m/s 763 mmHg 89%
    01:00 +14°C° 0.1 mm 4 m/s 763 mmHg 90%
    02:00 +14°C° 0.1 mm 4 m/s 763 mmHg 91%
    03:00 +13°C° 0.1 mm 4 m/s 763 mmHg 92%
    04:00 +13°C° 0.1 mm 4 m/s 763 mmHg 93%
    05:00 +14°C° 0.1 mm 4 m/s 763 mmHg 93%
    06:00 +14°C° 0.1 mm 4 m/s 763 mmHg 93%
    07:00 +14°C° 0.1 mm 4 m/s 764 mmHg 92%
    08:00 +15°C° 0.1 mm 4 m/s 764 mmHg 91%
    09:00 +15°C° 0.1 mm 4 m/s 764 mmHg 91%
    10:00 +18°C° 0.2 mm 4 m/s 764 mmHg 85%
    11:00 +19°C° 0.2 mm 4 m/s 764 mmHg 80%
    12:00 +21°C° 0.2 mm 4 m/s 764 mmHg 75%
    13:00 +21°C° 0.6 mm 4 m/s 764 mmHg 75%
    14:00 +21°C° 0.6 mm 4 m/s 764 mmHg 75%
    15:00 +21°C° 0.6 mm 4 m/s 764 mmHg 76%
    16:00 +20°C° 0.2 mm 4 m/s 764 mmHg 77%
    17:00 +20°C° 0.2 mm 3 m/s 764 mmHg 78%
    18:00 +19°C° 0.2 mm 3 m/s 764 mmHg 79%
    19:00 +18°C° 0 mm 2 m/s 765 mmHg 83%
    20:00 +16°C° 0 mm 2 m/s 765 mmHg 87%
    21:00 +14°C° 0 mm 1 m/s 765 mmHg 92%
    22:00 +14°C° 0 mm 1 m/s 765 mmHg 92%
    23:00 +13°C° 0 mm 1 m/s 765 mmHg 93%

    1 Junho, Sábado

    Tempo Temperatura Precipitação Vento Pressão Humidade
    00:00 +12°C° 0 mm 1 m/s 765 mmHg 93%
    01:00 +12°C° 0 mm 1 m/s 765 mmHg 93%
    02:00 +12°C° 0 mm 1 m/s 765 mmHg 94%
    03:00 +12°C° 0 mm 1 m/s 765 mmHg 94%
    04:00 +13°C° 0 mm 1 m/s 765 mmHg 92%
    05:00 +14°C° 0 mm 2 m/s 765 mmHg 90%
    06:00 +15°C° 0 mm 2 m/s 765 mmHg 87%
    07:00 +17°C° 0 mm 2 m/s 765 mmHg 81%
    08:00 +19°C° 0 mm 2 m/s 765 mmHg 75%
    09:00 +21°C° 0 mm 3 m/s 765 mmHg 69%
    10:00 +21°C° 0 mm 3 m/s 764 mmHg 66%
    11:00 +22°C° 0 mm 3 m/s 764 mmHg 63%
    12:00 +24°C° 0 mm 3 m/s 764 mmHg 60%
    13:00 +24°C° 0 mm 3 m/s 764 mmHg 60%
    14:00 +24°C° 0 mm 3 m/s 763 mmHg 60%
    15:00 +25°C° 0 mm 3 m/s 763 mmHg 60%
    16:00 +24°C° 0.2 mm 3 m/s 763 mmHg 66%
    17:00 +22°C° 0.2 mm 3 m/s 763 mmHg 72%
    18:00 +21°C° 0.2 mm 2 m/s 762 mmHg 78%
    19:00 +20°C° 0.2 mm 2 m/s 763 mmHg 82%
    20:00 +19°C° 0.2 mm 1 m/s 763 mmHg 86%
    21:00 +16°C° 0.2 mm 1 m/s 763 mmHg 91%
    22:00 +16°C° 0 mm 1 m/s 763 mmHg 92%
    23:00 +15°C° 0 mm 1 m/s 763 mmHg 93%
    Mostrar mais